RYR3558 LOWW-LBSF

Flight info

Callsign RYR3558
Flight time N/A
Altitude 35000
Route ARSIN1C/29 ARSIN DCT NALOX DCT NIKAB DCT BABIT DCT LULIK DCT NIVIS DCT BGD DCT RAVAK DCT NISVA
Aircraft B38M/M-SDE1FGHILORVWXY/HB1

Departure

Time N/A
Airport Vienna International Airport (LOWW)

Arrival

Time 2026-04-29 20:50
Airport Sofia Airport (LBSF)
Time Latitude Longitude Altitude Speed Heading
2026-04-29 20:50 42.69174 23.39920 1741 ft 0 kts 17°
2026-04-29 21:17 42.69194 23.39929 1744 ft 4 kts 18°
2026-04-29 21:17 42.69243 23.39932 1743 ft 7 kts 334°
2026-04-29 21:17 42.69260 23.39896 1745 ft 7 kts 292°
2026-04-29 21:17 42.69282 23.39802 1743 ft 13 kts 285°
2026-04-29 21:18 42.69303 23.39693 1744 ft 11 kts 275°
2026-04-29 21:18 42.69323 23.39594 1740 ft 11 kts 303°
2026-04-29 21:18 42.69384 23.39556 1743 ft 8 kts
2026-04-29 21:18 42.69442 23.39563 1741 ft 9 kts
2026-04-29 21:19 42.69509 23.39570 1743 ft 8 kts
2026-04-29 21:19 42.69560 23.39576 1738 ft 8 kts
2026-04-29 21:19 42.69612 23.39583 1744 ft 6 kts
2026-04-29 21:19 42.69635 23.39585 1739 ft 1 kts
2026-04-29 21:20 42.69638 23.39586 1740 ft 4 kts
2026-04-29 21:20 42.69660 23.39589 1742 ft 10 kts
2026-04-29 21:20 42.69728 23.39600 1741 ft 7 kts 15°
2026-04-29 21:20 42.69755 23.39627 1741 ft 4 kts 50°
2026-04-29 21:21 42.69766 23.39687 1741 ft 9 kts 94°
2026-04-29 21:21 42.69754 23.39888 1749 ft 51 kts 95°
2026-04-29 21:21 42.69706 23.40728 1744 ft 122 kts 94°
2026-04-29 21:21 42.69615 23.42102 1757 ft 171 kts 100°
2026-04-29 21:22 42.69469 23.43766 2329 ft 182 kts 97°
2026-04-29 21:22 42.69318 23.45582 2890 ft 205 kts 94°
2026-04-29 21:22 42.69158 23.47736 3460 ft 248 kts 93°
2026-04-29 21:22 42.69009 23.50149 4269 ft 266 kts 94°
2026-04-29 21:23 42.68856 23.52768 4977 ft 288 kts 94°
2026-04-29 21:23 42.68704 23.55580 5766 ft 308 kts 93°
2026-04-29 21:23 42.68532 23.58549 6652 ft 322 kts 93°